User: anonymous   Login
Location: Malcolm X Square
(37.7810°N, 122.4297°W)
Time: 11:52:11
(UTC+00:00)
Language:

KORONAS-FOTON - Orbit

View from above orbital plane
View from above orbital plane
View from above satellite
View from above satellite

Ground track
Ground track

The orbit data is extracted from the following two-line orbital elements,

1 33504U 09003A   24167.82099863  .00008008  00000-0  30663-3 0  9999
2 33504  82.4370 204.1809 0014112 241.7310 118.2505 15.26298265848819
Epoch (UTC): 15 June 2024 19:42:14
Eccentricity: 0.0014112
inclination: 82.4370°
perigee height: 477 km
apogee height: 496 km
right ascension of ascending node: 204.1809°
argument of perigee: 241.7310°
revolutions per day: 15.26298265
mean anomaly at epoch: 118.2505°
orbit number at epoch: 84881

The dashed part of the orbit path shows where the satellite is in the earth's shadow,  

DLR